Weather History for EHLE - July, 2013

Change the Weather History Date:

Friday, July 12, 2013

  Actual Average Record
Temperature  
Mean Temperature 58 °F -  
Max Temperature 66 °F - - ()
Min Temperature 50 °F - - ()
Degree Days  
Heating Degree Days 7    
Growing Degree Days 8 (Base 50)    
Moisture  
Dew Point 53 °F    
Average Humidity 77    
Maximum Humidity 95    
Minimum Humidity 59    
Precipitation  
Precipitation 0.04 in - - ()
Sea Level Pressure  
Sea Level Pressure 30.23 in    
Wind  
Wind Speed 4 mph ()    
Max Wind Speed 11 mph    
Max Gust Speed -    
Visibility 10.6 miles    
Events Rain    
T = Trace of Precipitation, MM = Missing Value Source: Averaged Metar Reports

Daily Weather History Graph

Daily Weather History Graph

Search for Another Location

Airport or City:

Trip Planner

Search our weather history database for the weather conditions in past years. The results will help you decide how hot, cold, wet, or windy it might be!

Date:

Astronomy

Jul. 12, 2013 Rise Set
Actual Time 5:30 AM CEST 9:56 PM CEST
Civil Twilight 4:42 AM CEST 10:43 PM CEST
Nautical Twilight 3:30 AM CEST 11:54 PM CEST
Astronomical Twilight 2:15 AM CEST 1:11 AM CEST
Moon 10:10 AM CEST (7/12) 11:15 PM CEST (7/12)
Length of Visible Light 18h 00m
Length of Day
16h 26m
Waxing Crescent, 15% of the Moon is Illuminated
Jul 12
Waxing Crescent
Jul 16
First Quarter
Jul 22
Full
Jul 29
Last Quarter
Aug 6
New

Hourly Weather History & Observations

Time (CEST) Temp. Dew Point Humidity Pressure Visibility Wind Dir Wind Speed Gust Speed Precip Events Conditions
12:00 AM 52 °F 50 °F 91% 30.24 in 11 mi NE 2.2 mph - -   Overcast
1:00 AM 54 °F 51 °F 87% 30.24 in 12 mi NE 4.5 mph - -   Overcast
2:00 AM 56 °F 50 °F 73% 30.23 in 16 mi NNE 4.5 mph - -   Partly Cloudy
4:00 AM 53 °F 49 °F 83% 30.22 in 18 mi Calm Calm - -   Overcast
5:00 AM 53 °F 50 °F 84% 30.22 in 15 mi ENE 2.2 mph - -   Overcast
6:00 AM 54 °F 51 °F 86% 30.22 in 12 mi South 2.2 mph - -   Overcast
7:00 AM 55 °F 52 °F 85% 30.22 in 11 mi 2.2 mph - -   Overcast
8:00 AM 56 °F 52 °F 83% 30.22 in 4 mi WSW 4.5 mph - - Rain Light Rain Showers
9:00 AM 56 °F 54 °F 89% 30.24 in 2 mi SSW 4.5 mph - - Rain Heavy Drizzle
10:00 AM 56 °F 55 °F 95% 30.24 in 2 mi South 4.5 mph - - Rain Light Rain Showers
11:00 AM 59 °F 56 °F 85% 30.24 in 14 mi SE 2.2 mph - - Rain Rain
12:00 PM 61 °F 56 °F 80% 30.24 in 25 mi NW 4.5 mph - - Rain Rain
1:00 PM 63 °F 57 °F 74% 30.24 in 25 mi North 6.7 mph - -   Partly Cloudy
2:00 PM 63 °F 55 °F 69% 30.24 in 25 mi NNW 6.7 mph - -   Partly Cloudy
3:00 PM 64 °F 56 °F 69% 30.24 in 28 mi NNW 8.9 mph - -   Scattered Clouds
4:00 PM 64 °F 54 °F 63% 30.23 in 25 mi North 8.9 mph - -   Overcast
5:00 PM 65 °F 54 °F 59% 30.22 in 25 mi North 8.9 mph - -   Mostly Cloudy
6:00 PM 63 °F 54 °F 64% 30.22 in 22 mi NNW 8.9 mph - -   Partly Cloudy
7:00 PM 63 °F 53 °F 61% 30.22 in 28 mi North 11.2 mph - -   Scattered Clouds
8:00 PM 62 °F 53 °F 65% 30.22 in 28 mi North 8.9 mph - -   Partly Cloudy
9:00 PM 60 °F 52 °F 67% 30.22 in 28 mi North 6.7 mph - -   Scattered Clouds
10:00 PM 57 °F 52 °F 77% 30.22 in 28 mi North 4.5 mph - -   Mostly Cloudy
11:00 PM 55 °F 52 °F 86% 30.23 in 28 mi NNE 2.2 mph - -